Time,TemperatureF,DewpointF,PressureIn,WindDirection,WindDirectionDegrees,WindSpeedMPH,WindSpeedGustMPH,Humidity,HourlyPrecipIn,Conditions,Clouds,dailyrainin,SoftwareType,DateUTC
2013-05-09 00:01:00,60.2,58.8,29.99,ENE,67,1.0,1.0,95,0.38,,,0.02,WeatherCatV1.15B25,2013-05-09 04:01:00,
2013-05-09 00:06:00,59.9,58.5,29.99,NNE,30,0.0,1.0,95,0.38,,,0.04,WeatherCatV1.15B25,2013-05-09 04:06:00,
2013-05-09 00:11:00,59.6,58.2,29.99,NNE,32,0.0,1.0,95,0.32,,,0.06,WeatherCatV1.15B25,2013-05-09 04:11:00,
2013-05-09 00:16:00,59.3,57.9,29.99,NNE,32,0.0,0.0,95,0.16,,,0.07,WeatherCatV1.15B25,2013-05-09 04:16:00,
2013-05-09 00:21:00,59.0,57.6,29.99,NNE,32,0.0,0.0,95,0.15,,,0.08,WeatherCatV1.15B25,2013-05-09 04:21:00,
2013-05-09 00:26:00,58.8,57.4,29.99,NNE,32,0.0,0.0,95,0.23,,,0.10,WeatherCatV1.15B25,2013-05-09 04:26:00,
2013-05-09 00:31:00,58.6,57.2,29.98,NNE,32,0.0,0.0,95,0.10,,,0.11,WeatherCatV1.15B25,2013-05-09 04:31:00,
2013-05-09 00:36:00,58.5,57.4,29.98,NNE,32,0.0,0.0,96,0.16,,,0.12,WeatherCatV1.15B25,2013-05-09 04:36:00,
2013-05-09 00:41:00,58.5,57.4,29.98,NNE,32,0.0,0.0,96,0.08,,,0.12,WeatherCatV1.15B25,2013-05-09 04:41:00,
2013-05-09 00:46:00,58.5,57.4,29.98,NNE,32,0.0,0.0,96,0.05,,,0.12,WeatherCatV1.15B25,2013-05-09 04:46:00,
2013-05-09 00:51:00,58.5,57.4,29.98,NNE,32,0.0,0.0,96,0.00,,,0.12,WeatherCatV1.15B25,2013-05-09 04:51:00,
2013-05-09 00:56:00,58.4,57.3,29.97,NNE,32,0.0,0.0,96,0.00,,,0.12,WeatherCatV1.15B25,2013-05-09 04:56:00,
2013-05-09 01:01:00,58.5,57.4,29.97,NNE,32,0.0,0.0,96,0.00,,,0.12,WeatherCatV1.15B25,2013-05-09 05:01:00,
2013-05-09 01:06:00,58.5,57.4,29.97,NNE,32,0.0,0.0,96,0.00,,,0.12,WeatherCatV1.15B25,2013-05-09 05:06:00,
2013-05-09 01:11:00,58.5,57.4,29.97,NNE,32,0.0,0.0,96,0.00,,,0.12,WeatherCatV1.15B25,2013-05-09 05:11:00,
2013-05-09 01:16:00,58.5,57.4,29.97,NNE,32,0.0,0.0,96,0.00,,,0.12,WeatherCatV1.15B25,2013-05-09 05:16:00,
2013-05-09 01:21:00,58.5,57.4,29.97,NNE,32,0.0,0.0,96,0.00,,,0.12,WeatherCatV1.15B25,2013-05-09 05:21:00,
2013-05-09 01:26:00,58.5,57.4,29.96,NNE,32,0.0,0.0,96,0.00,,,0.12,WeatherCatV1.15B25,2013-05-09 05:26:00,
2013-05-09 01:31:00,58.6,57.7,29.96,NNE,32,0.0,0.0,97,0.00,,,0.13,WeatherCatV1.15B25,2013-05-09 05:31:00,
2013-05-09 01:36:00,58.6,57.7,29.96,NNE,32,0.0,0.0,97,0.15,,,0.14,WeatherCatV1.15B25,2013-05-09 05:36:00,
2013-05-09 01:41:00,58.6,57.7,29.96,NNE,32,0.0,0.0,97,0.07,,,0.14,WeatherCatV1.15B25,2013-05-09 05:41:00,
2013-05-09 01:46:00,58.6,57.7,29.96,NNE,32,0.0,0.0,97,0.04,,,0.14,WeatherCatV1.15B25,2013-05-09 05:46:00,
2013-05-09 01:51:00,58.7,57.8,29.95,NNE,32,0.0,1.0,97,0.00,,,0.14,WeatherCatV1.15B25,2013-05-09 05:51:00,
2013-05-09 01:56:00,58.7,57.8,29.95,NNE,32,0.0,0.0,97,0.00,,,0.15,WeatherCatV1.15B25,2013-05-09 05:56:00,
2013-05-09 02:01:00,58.7,57.8,29.95,NNE,32,0.0,0.0,97,0.00,,,0.15,WeatherCatV1.15B25,2013-05-09 06:01:00,
2013-05-09 02:06:00,58.7,57.8,29.95,NNE,32,0.0,0.0,97,0.00,,,0.15,WeatherCatV1.15B25,2013-05-09 06:06:00,
2013-05-09 02:11:00,58.7,57.8,29.95,NNE,32,0.0,0.0,97,0.00,,,0.15,WeatherCatV1.15B25,2013-05-09 06:11:00,
2013-05-09 02:16:00,58.8,57.9,29.95,NNE,32,0.0,0.0,97,0.00,,,0.15,WeatherCatV1.15B25,2013-05-09 06:16:00,
2013-05-09 02:21:00,58.9,58.0,29.95,NNE,32,0.0,0.0,97,0.00,,,0.15,WeatherCatV1.15B25,2013-05-09 06:21:00,
2013-05-09 02:26:00,59.0,58.1,29.95,NNE,32,0.0,0.0,97,0.00,,,0.15,WeatherCatV1.15B25,2013-05-09 06:26:00,
2013-05-09 02:31:00,59.0,58.1,29.95,NNE,32,0.0,0.0,97,0.00,,,0.15,WeatherCatV1.15B25,2013-05-09 06:31:00,
2013-05-09 02:36:00,59.1,58.2,29.95,NNE,32,0.0,0.0,97,0.00,,,0.15,WeatherCatV1.15B25,2013-05-09 06:36:00,
2013-05-09 02:41:00,59.1,58.2,29.94,NNE,32,0.0,0.0,97,0.00,,,0.15,WeatherCatV1.15B25,2013-05-09 06:41:00,
2013-05-09 02:46:00,59.1,58.2,29.95,NNE,32,0.0,0.0,97,0.00,,,0.15,WeatherCatV1.15B25,2013-05-09 06:46:00,
2013-05-09 02:51:00,59.2,58.3,29.95,NNE,32,0.0,0.0,97,0.00,,,0.15,WeatherCatV1.15B25,2013-05-09 06:51:00,
2013-05-09 02:56:00,59.2,58.3,29.95,NNE,32,0.0,0.0,97,0.00,,,0.15,WeatherCatV1.15B25,2013-05-09 06:56:00,
2013-05-09 03:01:00,59.2,58.3,29.94,NNE,32,0.0,0.0,97,0.00,,,0.15,WeatherCatV1.15B25,2013-05-09 07:01:00,
2013-05-09 03:06:00,59.3,58.4,29.94,NNE,32,0.0,0.0,97,0.00,,,0.15,WeatherCatV1.15B25,2013-05-09 07:06:00,
2013-05-09 03:11:00,59.3,58.4,29.94,NNE,32,0.0,0.0,97,0.00,,,0.15,WeatherCatV1.15B25,2013-05-09 07:11:00,
2013-05-09 03:16:00,59.4,58.5,29.94,NNE,32,0.0,0.0,97,0.00,,,0.15,WeatherCatV1.15B25,2013-05-09 07:16:00,
2013-05-09 03:21:00,59.4,58.5,29.94,NNE,32,0.0,0.0,97,0.00,,,0.15,WeatherCatV1.15B25,2013-05-09 07:21:00,
2013-05-09 03:26:00,59.4,58.5,29.93,NNE,32,0.0,0.0,97,0.00,,,0.15,WeatherCatV1.15B25,2013-05-09 07:26:00,
2013-05-09 03:31:00,59.5,58.6,29.93,NNE,32,0.0,0.0,97,0.00,,,0.15,WeatherCatV1.15B25,2013-05-09 07:31:00,
2013-05-09 03:36:00,59.5,58.9,29.93,NNE,32,0.0,0.0,98,0.00,,,0.15,WeatherCatV1.15B25,2013-05-09 07:36:00,
2013-05-09 03:41:00,59.5,58.6,29.93,NNE,32,0.0,0.0,97,0.00,,,0.15,WeatherCatV1.15B25,2013-05-09 07:41:00,
2013-05-09 03:46:00,59.5,58.6,29.93,NNE,32,0.0,0.0,97,0.00,,,0.15,WeatherCatV1.15B25,2013-05-09 07:46:00,
2013-05-09 03:51:00,59.4,58.5,29.93,NNE,32,0.0,0.0,97,0.00,,,0.15,WeatherCatV1.15B25,2013-05-09 07:51:00,
2013-05-09 03:56:00,59.5,58.6,29.93,NNE,32,0.0,0.0,97,0.00,,,0.15,WeatherCatV1.15B25,2013-05-09 07:56:00,
2013-05-09 04:01:00,59.4,58.5,29.93,NNE,32,0.0,0.0,97,0.00,,,0.15,WeatherCatV1.15B25,2013-05-09 08:01:00,
2013-05-09 04:06:00,59.4,58.5,29.92,NNE,32,0.0,0.0,97,0.00,,,0.15,WeatherCatV1.15B25,2013-05-09 08:06:00,
2013-05-09 04:11:00,59.3,58.4,29.92,NNE,32,0.0,0.0,97,0.00,,,0.15,WeatherCatV1.15B25,2013-05-09 08:11:00,
2013-05-09 04:16:00,59.3,58.4,29.92,NNE,32,0.0,0.0,97,0.00,,,0.15,WeatherCatV1.15B25,2013-05-09 08:16:00,
2013-05-09 04:21:00,59.3,58.4,29.92,NNE,32,0.0,0.0,97,0.00,,,0.15,WeatherCatV1.15B25,2013-05-09 08:21:00,
2013-05-09 04:26:00,59.2,58.3,29.92,NNE,32,0.0,0.0,97,0.00,,,0.15,WeatherCatV1.15B25,2013-05-09 08:26:00,
2013-05-09 04:31:00,59.2,58.3,29.92,NNE,32,0.0,0.0,97,0.00,,,0.15,WeatherCatV1.15B25,2013-05-09 08:31:00,
2013-05-09 04:36:00,59.2,58.3,29.92,NNE,32,0.0,0.0,97,0.00,,,0.15,WeatherCatV1.15B25,2013-05-09 08:36:00,
2013-05-09 04:41:00,59.1,58.2,29.92,NNE,32,0.0,0.0,97,0.00,,,0.15,WeatherCatV1.15B25,2013-05-09 08:41:00,
2013-05-09 04:46:00,59.1,58.2,29.92,NNE,32,0.0,0.0,97,0.00,,,0.15,WeatherCatV1.15B25,2013-05-09 08:46:00,
2013-05-09 04:51:00,59.1,58.2,29.92,NNE,32,0.0,0.0,97,0.00,,,0.15,WeatherCatV1.15B25,2013-05-09 08:51:00,
2013-05-09 04:56:00,59.1,58.2,29.92,NNE,32,0.0,0.0,97,0.00,,,0.15,WeatherCatV1.15B25,2013-05-09 08:56:00,
2013-05-09 05:01:00,59.1,58.2,29.92,NNE,32,0.0,0.0,97,0.00,,,0.15,WeatherCatV1.15B25,2013-05-09 09:01:00,
2013-05-09 05:06:00,59.1,58.2,29.92,NNE,32,0.0,0.0,97,0.00,,,0.15,WeatherCatV1.15B25,2013-05-09 09:06:00,
2013-05-09 05:11:00,59.1,58.5,29.92,NNE,32,0.0,0.0,98,0.00,,,0.15,WeatherCatV1.15B25,2013-05-09 09:11:00,
2013-05-09 05:16:00,59.1,58.2,29.92,NNE,32,0.0,0.0,97,0.00,,,0.15,WeatherCatV1.15B25,2013-05-09 09:16:00,
2013-05-09 05:21:00,59.0,58.1,29.92,NNE,32,0.0,0.0,97,0.00,,,0.15,WeatherCatV1.15B25,2013-05-09 09:21:00,
2013-05-09 05:26:00,58.9,58.0,29.92,NNE,32,1.0,2.0,97,0.00,,,0.15,WeatherCatV1.15B25,2013-05-09 09:26:00,
2013-05-09 05:31:00,58.5,57.6,29.92,NNE,32,0.0,0.0,97,0.00,,,0.15,WeatherCatV1.15B25,2013-05-09 09:31:00,
2013-05-09 05:36:00,58.3,57.5,29.92,NNE,32,0.0,0.0,97,0.00,,,0.15,WeatherCatV1.15B25,2013-05-09 09:36:00,
2013-05-09 05:41:00,58.1,57.3,29.92,NNE,32,0.0,0.0,97,0.00,,,0.15,WeatherCatV1.15B25,2013-05-09 09:41:00,
2013-05-09 05:46:00,58.0,57.2,29.92,NNE,32,0.0,0.0,97,0.00,,,0.15,WeatherCatV1.15B25,2013-05-09 09:46:00,
2013-05-09 05:51:00,57.9,57.1,29.92,NNE,32,0.0,0.0,97,0.00,,,0.15,WeatherCatV1.15B25,2013-05-09 09:51:00,
2013-05-09 05:56:00,57.8,57.0,29.93,NNE,32,0.0,0.0,97,0.00,,,0.15,WeatherCatV1.15B25,2013-05-09 09:56:00,
2013-05-09 06:01:00,57.8,57.0,29.93,NNE,32,0.0,0.0,97,0.00,,,0.15,WeatherCatV1.15B25,2013-05-09 10:01:00,
2013-05-09 06:06:00,57.8,57.0,29.92,NNE,32,0.0,0.0,97,0.00,,,0.15,WeatherCatV1.15B25,2013-05-09 10:06:00,
2013-05-09 06:11:00,57.8,57.0,29.92,NNE,32,0.0,0.0,97,0.00,,,0.15,WeatherCatV1.15B25,2013-05-09 10:11:00,
2013-05-09 06:16:00,57.9,57.1,29.93,NNE,32,0.0,0.0,97,0.00,,,0.15,WeatherCatV1.15B25,2013-05-09 10:16:00,
2013-05-09 06:21:00,57.8,57.0,29.92,NNE,32,0.0,0.0,97,0.00,,,0.15,WeatherCatV1.15B25,2013-05-09 10:21:00,
2013-05-09 06:26:00,57.8,57.0,29.92,NNE,32,0.0,0.0,97,0.00,,,0.15,WeatherCatV1.15B25,2013-05-09 10:26:00,
2013-05-09 06:31:00,57.9,57.3,29.92,NNE,32,0.0,0.0,98,0.00,,,0.15,WeatherCatV1.15B25,2013-05-09 10:31:00,
2013-05-09 06:36:00,57.9,57.3,29.93,NNE,32,0.0,1.0,98,0.00,,,0.15,WeatherCatV1.15B25,2013-05-09 10:36:00,
2013-05-09 06:41:00,57.9,57.3,29.92,NNE,32,0.0,0.0,98,0.00,,,0.15,WeatherCatV1.15B25,2013-05-09 10:41:00,
2013-05-09 06:46:00,58.0,57.2,29.92,NNE,32,0.0,0.0,97,0.00,,,0.15,WeatherCatV1.15B25,2013-05-09 10:46:00,
2013-05-09 06:51:00,58.0,57.2,29.92,NE,34,0.0,1.0,97,0.00,,,0.15,WeatherCatV1.15B25,2013-05-09 10:51:00,
2013-05-09 06:56:00,58.0,57.2,29.93,NE,43,0.0,0.0,97,0.00,,,0.15,WeatherCatV1.15B25,2013-05-09 10:56:00,
2013-05-09 07:01:00,58.0,57.2,29.93,NE,43,0.0,0.0,97,0.00,,,0.15,WeatherCatV1.15B25,2013-05-09 11:01:00,
2013-05-09 07:06:00,58.1,57.5,29.93,NE,43,0.0,0.0,98,0.00,,,0.15,WeatherCatV1.15B25,2013-05-09 11:06:00,
2013-05-09 07:11:00,58.2,57.6,29.93,NE,43,0.0,0.0,98,0.00,,,0.15,WeatherCatV1.15B25,2013-05-09 11:11:00,
2013-05-09 07:16:00,58.3,57.7,29.93,NE,43,0.0,0.0,98,0.00,,,0.15,WeatherCatV1.15B25,2013-05-09 11:16:00,
2013-05-09 07:21:00,58.5,57.9,29.93,NE,43,0.0,0.0,98,0.00,,,0.15,WeatherCatV1.15B25,2013-05-09 11:21:00,
2013-05-09 07:26:00,58.6,58.0,29.93,NE,43,0.0,0.0,98,0.00,,,0.15,WeatherCatV1.15B25,2013-05-09 11:26:00,
2013-05-09 07:31:00,58.6,58.0,29.93,NE,43,0.0,0.0,98,0.00,,,0.15,WeatherCatV1.15B25,2013-05-09 11:31:00,
2013-05-09 07:36:00,58.7,58.1,29.93,NE,43,0.0,0.0,98,0.00,,,0.15,WeatherCatV1.15B25,2013-05-09 11:36:00,
2013-05-09 07:41:00,58.7,58.1,29.93,NE,43,0.0,1.0,98,0.00,,,0.15,WeatherCatV1.15B25,2013-05-09 11:41:00,
2013-05-09 07:46:00,58.7,58.1,29.93,NE,43,0.0,0.0,98,0.00,,,0.15,WeatherCatV1.15B25,2013-05-09 11:46:00,
2013-05-09 07:51:00,58.6,58.0,29.94,NE,43,0.0,0.0,98,0.00,,,0.15,WeatherCatV1.15B25,2013-05-09 11:51:00,
2013-05-09 07:56:00,58.6,58.0,29.93,NE,43,0.0,0.0,98,0.00,,,0.15,WeatherCatV1.15B25,2013-05-09 11:56:00,
2013-05-09 08:01:00,58.6,58.0,29.93,NE,43,0.0,0.0,98,0.00,,,0.15,WeatherCatV1.15B25,2013-05-09 12:01:00,
2013-05-09 08:06:00,58.6,58.0,29.93,NE,48,0.0,0.0,98,0.00,,,0.15,WeatherCatV1.15B25,2013-05-09 12:06:00,
2013-05-09 08:11:00,58.5,57.9,29.93,NE,48,0.0,1.0,98,0.00,,,0.15,WeatherCatV1.15B25,2013-05-09 12:11:00,
2013-05-09 08:16:00,58.4,57.8,29.93,NE,48,0.0,0.0,98,0.00,,,0.15,WeatherCatV1.15B25,2013-05-09 12:16:00,
2013-05-09 08:21:00,58.4,57.8,29.94,NE,48,0.0,1.0,98,0.00,,,0.15,WeatherCatV1.15B25,2013-05-09 12:21:00,
2013-05-09 08:26:00,58.5,57.9,29.94,NE,48,0.0,0.0,98,0.00,,,0.15,WeatherCatV1.15B25,2013-05-09 12:26:00,
2013-05-09 08:31:00,58.5,57.9,29.94,NE,48,0.0,0.0,98,0.00,,,0.15,WeatherCatV1.15B25,2013-05-09 12:31:00,
2013-05-09 08:36:00,58.4,57.8,29.93,NE,48,0.0,0.0,98,0.00,,,0.15,WeatherCatV1.15B25,2013-05-09 12:36:00,
2013-05-09 08:41:00,58.4,57.8,29.93,NE,48,1.0,1.0,98,0.00,,,0.15,WeatherCatV1.15B25,2013-05-09 12:41:00,
2013-05-09 08:46:00,58.5,57.9,29.93,NE,48,0.0,0.0,98,0.00,,,0.15,WeatherCatV1.15B25,2013-05-09 12:46:00,
2013-05-09 08:51:00,58.4,57.5,29.93,NE,46,0.0,1.0,97,0.00,,,0.15,WeatherCatV1.15B25,2013-05-09 12:51:00,
2013-05-09 08:56:00,58.4,57.5,29.93,NE,46,0.0,1.0,97,0.00,,,0.15,WeatherCatV1.15B25,2013-05-09 12:56:00,
2013-05-09 09:01:00,58.2,57.4,29.94,NE,46,0.0,0.0,97,0.00,,,0.15,WeatherCatV1.15B25,2013-05-09 13:01:00,
2013-05-09 09:06:00,58.1,57.3,29.94,NE,46,0.0,0.0,97,0.00,,,0.15,WeatherCatV1.15B25,2013-05-09 13:06:00,
2013-05-09 09:11:00,58.0,57.2,29.93,NE,46,0.0,1.0,97,0.00,,,0.16,WeatherCatV1.15B25,2013-05-09 13:11:00,
2013-05-09 09:16:00,57.8,57.0,29.93,NNE,23,0.0,1.0,97,0.00,,,0.16,WeatherCatV1.15B25,2013-05-09 13:16:00,
2013-05-09 09:21:00,57.6,56.8,29.93,NNE,25,2.0,3.0,97,0.06,,,0.16,WeatherCatV1.15B25,2013-05-09 13:21:00,
2013-05-09 09:26:00,57.4,56.6,29.93,NNE,27,0.0,0.0,97,0.06,,,0.17,WeatherCatV1.15B25,2013-05-09 13:26:00,
2013-05-09 09:31:00,57.4,56.6,29.93,NNE,26,0.0,0.0,97,0.06,,,0.17,WeatherCatV1.15B25,2013-05-09 13:31:00,
2013-05-09 09:36:00,57.5,56.7,29.93,NNE,26,0.0,2.0,97,0.04,,,0.18,WeatherCatV1.15B25,2013-05-09 13:36:00,
2013-05-09 09:41:00,57.5,56.7,29.93,NNE,28,0.0,2.0,97,0.04,,,0.18,WeatherCatV1.15B25,2013-05-09 13:41:00,
2013-05-09 09:46:00,57.6,56.8,29.92,NNE,28,0.0,0.0,97,0.04,,,0.18,WeatherCatV1.15B25,2013-05-09 13:46:00,
2013-05-09 09:51:00,58.0,57.2,29.92,NE,44,1.0,4.0,97,0.04,,,0.18,WeatherCatV1.15B25,2013-05-09 13:51:00,
2013-05-09 09:56:00,58.0,57.2,29.92,ESE,114,1.0,2.0,97,0.00,,,0.18,WeatherCatV1.15B25,2013-05-09 13:56:00,
2013-05-09 10:01:00,58.1,57.3,29.92,NNE,25,3.0,4.0,97,0.00,,,0.18,WeatherCatV1.15B25,2013-05-09 14:01:00,
2013-05-09 10:06:00,58.1,57.3,29.92,NE,53,0.0,1.0,97,0.00,,,0.18,WeatherCatV1.15B25,2013-05-09 14:06:00,
2013-05-09 10:11:00,57.9,57.1,29.92,NNE,19,0.0,1.0,97,0.00,,,0.18,WeatherCatV1.15B25,2013-05-09 14:11:00,
2013-05-09 10:16:00,57.8,57.0,29.92,NNE,30,0.0,2.0,97,0.00,,,0.18,WeatherCatV1.15B25,2013-05-09 14:16:00,
2013-05-09 10:21:00,57.8,57.0,29.92,NNE,18,0.0,1.0,97,0.00,,,0.18,WeatherCatV1.15B25,2013-05-09 14:21:00,
2013-05-09 10:26:00,57.8,57.0,29.92,ENE,65,0.0,2.0,97,0.00,,,0.18,WeatherCatV1.15B25,2013-05-09 14:26:00,
2013-05-09 10:31:00,57.7,56.9,29.92,NNE,25,0.0,1.0,97,0.00,,,0.18,WeatherCatV1.15B25,2013-05-09 14:31:00,
2013-05-09 10:36:00,57.8,57.0,29.92,ESE,115,0.0,2.0,97,0.00,,,0.18,WeatherCatV1.15B25,2013-05-09 14:36:00,
2013-05-09 10:41:00,57.8,56.7,29.92,ENE,69,0.0,0.0,96,0.00,,,0.18,WeatherCatV1.15B25,2013-05-09 14:41:00,
2013-05-09 10:46:00,58.0,57.2,29.92,NE,36,1.0,2.0,97,0.00,,,0.18,WeatherCatV1.15B25,2013-05-09 14:46:00,
2013-05-09 10:51:00,58.1,57.3,29.92,NNE,27,0.0,0.0,97,0.00,,,0.18,WeatherCatV1.15B25,2013-05-09 14:51:00,
2013-05-09 10:56:00,58.2,57.1,29.92,NNE,28,0.0,3.0,96,0.00,,,0.18,WeatherCatV1.15B25,2013-05-09 14:56:00,
2013-05-09 11:01:00,58.5,57.4,29.92,NNE,28,1.0,3.0,96,0.00,,,0.18,WeatherCatV1.15B25,2013-05-09 15:01:00,
2013-05-09 11:06:00,58.6,57.5,29.92,NNE,28,0.0,1.0,96,0.00,,,0.18,WeatherCatV1.15B25,2013-05-09 15:06:00,
2013-05-09 11:11:00,58.6,57.5,29.92,NE,36,0.0,1.0,96,0.00,,,0.18,WeatherCatV1.15B25,2013-05-09 15:11:00,
2013-05-09 11:16:00,58.8,57.4,29.92,NE,36,0.0,0.0,95,0.00,,,0.18,WeatherCatV1.15B25,2013-05-09 15:16:00,
2013-05-09 11:21:00,58.7,57.0,29.92,NE,36,0.0,0.0,94,0.00,,,0.18,WeatherCatV1.15B25,2013-05-09 15:21:00,
2013-05-09 11:26:00,58.7,57.0,29.92,ENE,71,0.0,2.0,94,0.00,,,0.18,WeatherCatV1.15B25,2013-05-09 15:26:00,
2013-05-09 11:31:00,58.6,56.9,29.92,NNE,20,0.0,3.0,94,0.00,,,0.18,WeatherCatV1.15B25,2013-05-09 15:31:00,
2013-05-09 11:36:00,58.7,57.0,29.91,NNE,18,0.0,1.0,94,0.00,,,0.18,WeatherCatV1.15B25,2013-05-09 15:36:00,
2013-05-09 11:41:00,58.8,57.1,29.92,NE,52,0.0,1.0,94,0.00,,,0.18,WeatherCatV1.15B25,2013-05-09 15:41:00,
2013-05-09 11:46:00,58.8,56.8,29.92,ENE,75,0.0,0.0,93,0.00,,,0.18,WeatherCatV1.15B25,2013-05-09 15:46:00,
2013-05-09 11:51:00,58.8,57.1,29.92,ENE,75,0.0,0.0,94,0.00,,,0.18,WeatherCatV1.15B25,2013-05-09 15:51:00,
2013-05-09 11:56:00,59.0,57.0,29.92,ENE,75,0.0,0.0,93,0.00,,,0.18,WeatherCatV1.15B25,2013-05-09 15:56:00,
2013-05-09 12:01:00,58.9,56.9,29.93,NNW,344,0.0,0.0,93,0.00,,,0.18,WeatherCatV1.15B25,2013-05-09 16:01:00,
2013-05-09 12:06:00,59.0,57.3,29.92,NNW,344,0.0,0.0,94,0.00,,,0.18,WeatherCatV1.15B25,2013-05-09 16:06:00,
2013-05-09 12:11:00,59.2,57.8,29.92,NNW,344,0.0,0.0,95,0.00,,,0.18,WeatherCatV1.15B25,2013-05-09 16:11:00,
2013-05-09 12:16:00,59.2,57.8,29.92,NNW,344,0.0,0.0,95,0.00,,,0.18,WeatherCatV1.15B25,2013-05-09 16:16:00,
2013-05-09 12:21:00,59.4,58.3,29.92,NNW,344,0.0,0.0,96,0.00,,,0.19,WeatherCatV1.15B25,2013-05-09 16:21:00,
2013-05-09 12:26:00,59.6,58.5,29.92,NNW,344,0.0,0.0,96,0.00,,,0.19,WeatherCatV1.15B25,2013-05-09 16:26:00,
2013-05-09 12:31:00,59.6,58.2,29.92,NNW,344,0.0,0.0,95,0.00,,,0.19,WeatherCatV1.15B25,2013-05-09 16:31:00,
2013-05-09 12:36:00,59.5,58.1,29.92,WNW,285,0.0,0.0,95,0.00,,,0.19,WeatherCatV1.15B25,2013-05-09 16:36:00,
2013-05-09 12:41:00,59.6,58.5,29.92,WNW,285,0.0,0.0,96,0.00,,,0.20,WeatherCatV1.15B25,2013-05-09 16:41:00,
2013-05-09 12:46:00,59.6,58.5,29.92,WNW,285,0.0,1.0,96,0.00,,,0.20,WeatherCatV1.15B25,2013-05-09 16:46:00,
2013-05-09 12:51:00,59.5,58.4,29.92,WNW,285,0.0,0.0,96,0.00,,,0.20,WeatherCatV1.15B25,2013-05-09 16:51:00,
2013-05-09 12:56:00,59.4,58.3,29.91,WNW,285,0.0,0.0,96,0.00,,,0.20,WeatherCatV1.15B25,2013-05-09 16:56:00,
2013-05-09 13:01:00,59.3,58.2,29.91,WNW,296,0.0,1.0,96,0.00,,,0.21,WeatherCatV1.15B25,2013-05-09 17:01:00,
2013-05-09 13:06:00,59.4,58.3,29.91,WNW,296,0.0,0.0,96,0.12,,,0.22,WeatherCatV1.15B25,2013-05-09 17:06:00,
2013-05-09 13:11:00,59.4,58.5,29.90,WNW,296,0.0,0.0,97,0.09,,,0.23,WeatherCatV1.15B25,2013-05-09 17:11:00,
2013-05-09 13:16:00,59.5,58.6,29.89,NW,306,0.0,1.0,97,0.13,,,0.24,WeatherCatV1.15B25,2013-05-09 17:16:00,
2013-05-09 13:21:00,59.4,58.5,29.89,NW,306,0.0,0.0,97,0.09,,,0.25,WeatherCatV1.15B25,2013-05-09 17:21:00,
2013-05-09 13:26:00,59.3,58.4,29.89,NW,306,0.0,0.0,97,0.14,,,0.26,WeatherCatV1.15B25,2013-05-09 17:26:00,
2013-05-09 13:31:00,59.4,58.5,29.89,NW,306,0.0,1.0,97,0.08,,,0.27,WeatherCatV1.15B25,2013-05-09 17:31:00,
2013-05-09 13:36:00,59.5,58.6,29.89,NW,306,0.0,0.0,97,0.12,,,0.28,WeatherCatV1.15B25,2013-05-09 17:36:00,
2013-05-09 13:41:00,59.6,58.7,29.89,NNW,333,0.0,2.0,97,0.11,,,0.28,WeatherCatV1.15B25,2013-05-09 17:41:00,
2013-05-09 13:46:00,59.9,59.0,29.89,NNW,341,0.0,2.0,97,0.07,,,0.29,WeatherCatV1.15B25,2013-05-09 17:46:00,
2013-05-09 13:51:00,60.5,59.9,29.89,NNW,341,0.0,0.0,98,0.12,,,0.30,WeatherCatV1.15B25,2013-05-09 17:51:00,
2013-05-09 13:55:00,61.2,60.6,29.88,ENE,73,1.0,2.0,98,0.10,,,0.30,WeatherCatV1.15B25,2013-05-09 17:55:00,
2013-05-09 14:00:00,61.1,60.2,29.88,ENE,64,0.0,0.0,97,0.06,,,0.31,WeatherCatV1.15B25,2013-05-09 18:00:00,
2013-05-09 14:02:00,61.4,60.5,29.88,ENE,64,0.0,0.0,97,0.06,,,0.31,WeatherCatV1.15B25,2013-05-09 18:02:00,
2013-05-09 14:07:00,62.4,61.8,29.88,ENE,64,0.0,1.0,98,0.06,,,0.31,WeatherCatV1.15B25,2013-05-09 18:07:00,
2013-05-09 14:12:00,62.4,60.3,29.88,ENE,65,0.0,1.0,93,0.05,,,0.31,WeatherCatV1.15B25,2013-05-09 18:12:00,
2013-05-09 14:17:00,62.4,60.6,29.88,ENE,65,0.0,0.0,94,0.00,,,0.31,WeatherCatV1.15B25,2013-05-09 18:17:00,
2013-05-09 14:22:00,62.7,60.9,29.88,ENE,65,0.0,0.0,94,0.00,,,0.31,WeatherCatV1.15B25,2013-05-09 18:22:00,
2013-05-09 14:27:00,62.8,60.1,29.88,ENE,65,0.0,0.0,91,0.00,,,0.31,WeatherCatV1.15B25,2013-05-09 18:27:00,
2013-05-09 14:32:00,63.2,61.1,29.87,ENE,65,0.0,0.0,93,0.00,,,0.31,WeatherCatV1.15B25,2013-05-09 18:32:00,
2013-05-09 14:37:00,64.4,61.7,29.87,ENE,65,0.0,0.0,91,0.00,,,0.31,WeatherCatV1.15B25,2013-05-09 18:37:00,
2013-05-09 14:42:00,64.6,60.3,29.87,ENE,65,1.0,1.0,86,0.00,,,0.31,WeatherCatV1.15B25,2013-05-09 18:42:00,
2013-05-09 14:47:00,64.7,60.4,29.87,ENE,65,0.0,0.0,86,0.00,,,0.31,WeatherCatV1.15B25,2013-05-09 18:47:00,
2013-05-09 14:52:00,64.9,59.9,29.87,ENE,65,0.0,0.0,84,0.00,,,0.31,WeatherCatV1.15B25,2013-05-09 18:52:00,
2013-05-09 14:57:00,65.9,60.2,29.87,NNE,30,0.0,0.0,82,0.00,,,0.31,WeatherCatV1.15B25,2013-05-09 18:57:00,
2013-05-09 15:02:00,66.3,61.3,29.86,NNE,15,0.0,1.0,84,0.00,,,0.31,WeatherCatV1.15B25,2013-05-09 19:02:00,
2013-05-09 15:07:00,66.7,60.0,29.87,NNE,28,0.0,1.0,79,0.00,,,0.31,WeatherCatV1.15B25,2013-05-09 19:07:00,
2013-05-09 15:12:00,67.2,60.8,29.86,East,94,2.0,5.0,80,0.00,,,0.31,WeatherCatV1.15B25,2013-05-09 19:12:00,
2013-05-09 15:17:00,67.4,60.7,29.86,East,100,5.0,6.0,79,0.00,,,0.31,WeatherCatV1.15B25,2013-05-09 19:17:00,
2013-05-09 15:22:00,66.9,60.2,29.86,ENE,68,0.0,2.0,79,0.00,,,0.32,WeatherCatV1.15B25,2013-05-09 19:22:00,
2013-05-09 15:27:00,66.0,59.6,29.86,North,11,1.0,5.0,80,0.00,,,0.32,WeatherCatV1.15B25,2013-05-09 19:27:00,
2013-05-09 15:32:00,65.4,59.4,29.86,ENE,73,1.0,5.0,81,0.00,,,0.32,WeatherCatV1.15B25,2013-05-09 19:32:00,
2013-05-09 15:37:00,64.9,59.3,29.86,NE,52,0.0,3.0,82,0.00,,,0.32,WeatherCatV1.15B25,2013-05-09 19:37:00,
2013-05-09 15:42:00,64.1,59.2,29.85,NNE,17,2.0,5.0,84,0.00,,,0.32,WeatherCatV1.15B25,2013-05-09 19:42:00,
2013-05-09 15:47:00,63.4,59.5,29.85,NNE,18,0.0,1.0,87,0.00,,,0.32,WeatherCatV1.15B25,2013-05-09 19:47:00,
2013-05-09 15:52:00,62.7,59.1,29.85,NE,53,0.0,2.0,88,0.00,,,0.32,WeatherCatV1.15B25,2013-05-09 19:52:00,
2013-05-09 15:57:00,62.0,58.7,29.85,East,86,3.0,5.0,89,0.00,,,0.32,WeatherCatV1.15B25,2013-05-09 19:57:00,
2013-05-09 16:02:00,61.5,58.5,29.85,NE,46,1.0,3.0,90,0.00,,,0.32,WeatherCatV1.15B25,2013-05-09 20:02:00,
2013-05-09 16:07:00,61.3,58.6,29.85,NNE,14,1.0,1.0,91,0.00,,,0.32,WeatherCatV1.15B25,2013-05-09 20:07:00,
2013-05-09 16:12:00,61.1,58.4,29.85,NNE,14,0.0,0.0,91,0.00,,,0.32,WeatherCatV1.15B25,2013-05-09 20:12:00,
2013-05-09 16:17:00,61.0,58.3,29.84,NNE,14,0.0,2.0,91,0.00,,,0.32,WeatherCatV1.15B25,2013-05-09 20:17:00,
2013-05-09 16:22:00,60.5,57.5,29.84,NE,52,0.0,2.0,90,0.00,,,0.32,WeatherCatV1.15B25,2013-05-09 20:22:00,
2013-05-09 16:27:00,60.1,57.5,29.85,NE,34,0.0,2.0,91,0.00,,,0.32,WeatherCatV1.15B25,2013-05-09 20:27:00,
2013-05-09 16:32:00,59.8,57.2,29.85,NNE,15,0.0,3.0,91,0.00,,,0.32,WeatherCatV1.15B25,2013-05-09 20:32:00,
2013-05-09 16:37:00,59.6,57.3,29.84,NNE,15,0.0,0.0,92,0.00,,,0.32,WeatherCatV1.15B25,2013-05-09 20:37:00,
2013-05-09 16:42:00,59.5,57.5,29.84,NNE,15,0.0,1.0,93,0.00,,,0.32,WeatherCatV1.15B25,2013-05-09 20:42:00,
2013-05-09 16:47:00,59.3,57.3,29.84,NNE,15,0.0,0.0,93,0.00,,,0.33,WeatherCatV1.15B25,2013-05-09 20:47:00,
2013-05-09 16:50:00,59.4,57.4,29.84,NNE,15,0.0,0.0,93,0.00,,,0.00,WeatherCatV1.15B25,2013-05-09 20:50:00,
2013-05-09 16:55:00,59.1,57.1,29.84,NNE,21,0.0,2.0,93,0.00,,,0.00,WeatherCatV1.15B25,2013-05-09 20:55:00,
2013-05-09 17:00:00,59.1,57.1,29.84,NNE,21,0.0,2.0,93,0.00,,,0.00,WeatherCatV1.15B25,2013-05-09 21:00:00,
2013-05-09 17:05:00,59.1,57.1,29.84,NNE,21,0.0,2.0,93,0.00,,,0.00,WeatherCatV1.15B25,2013-05-09 21:05:00,
2013-05-09 17:10:00,58.5,56.5,29.85,NNE,22,0.0,5.0,93,0.06,,,0.00,WeatherCatV1.15B25,2013-05-09 21:10:00,
2013-05-09 17:15:00,58.5,56.5,29.85,NNE,22,0.0,5.0,93,0.06,,,0.00,WeatherCatV1.15B25,2013-05-09 21:15:00,
2013-05-09 17:20:00,58.5,56.5,29.85,NNE,22,0.0,5.0,93,0.06,,,0.00,WeatherCatV1.15B25,2013-05-09 21:20:00,
2013-05-09 17:25:00,58.5,56.5,29.85,NNE,22,0.0,5.0,93,0.06,,,0.00,WeatherCatV1.15B25,2013-05-09 21:25:00,
2013-05-09 17:30:00,58.5,56.5,29.85,NNE,22,0.0,5.0,93,0.06,,,0.00,WeatherCatV1.15B25,2013-05-09 21:30:00,
2013-05-09 17:35:00,58.5,56.5,29.85,NNE,22,0.0,5.0,93,0.06,,,0.00,WeatherCatV1.15B25,2013-05-09 21:35:00,
2013-05-09 17:40:00,57.1,55.7,29.85,NW,315,0.0,5.0,95,0.06,,,0.00,WeatherCatV1.15B25,2013-05-09 21:40:00,
2013-05-09 17:45:00,57.1,55.7,29.85,NW,315,0.0,5.0,95,0.06,,,0.00,WeatherCatV1.15B25,2013-05-09 21:45:00,
2013-05-09 17:50:00,57.1,55.7,29.85,NW,315,0.0,5.0,95,0.06,,,0.00,WeatherCatV1.15B25,2013-05-09 21:50:00,
2013-05-09 17:55:00,57.1,55.7,29.85,NW,315,0.0,5.0,95,0.06,,,0.00,WeatherCatV1.15B25,2013-05-09 21:55:00,
2013-05-09 18:00:00,57.1,55.7,29.85,NW,315,0.0,5.0,95,0.06,,,0.00,WeatherCatV1.15B25,2013-05-09 22:00:00,
2013-05-09 18:05:00,57.1,55.7,29.85,NW,315,0.0,5.0,95,0.06,,,0.00,WeatherCatV1.15B25,2013-05-09 22:05:00,
2013-05-09 18:10:00,56.9,55.8,29.84,NW,315,0.0,1.0,96,0.08,,,0.00,WeatherCatV1.15B25,2013-05-09 22:10:00,
2013-05-09 18:15:00,56.9,55.8,29.84,NW,315,0.0,1.0,96,0.08,,,0.00,WeatherCatV1.15B25,2013-05-09 22:15:00,
2013-05-09 18:20:00,56.9,55.8,29.84,NW,315,0.0,1.0,96,0.08,,,0.00,WeatherCatV1.15B25,2013-05-09 22:20:00,
2013-05-09 18:25:00,56.9,55.8,29.84,NW,315,0.0,1.0,96,0.08,,,0.00,WeatherCatV1.15B25,2013-05-09 22:25:00,
2013-05-09 18:30:00,56.9,55.8,29.84,NW,315,0.0,1.0,96,0.08,,,0.00,WeatherCatV1.15B25,2013-05-09 22:30:00,
2013-05-09 18:35:00,56.9,55.8,29.84,NW,315,0.0,1.0,96,0.08,,,0.00,WeatherCatV1.15B25,2013-05-09 22:35:00,
2013-05-09 18:40:00,56.7,55.8,29.84,NW,315,0.0,1.0,97,0.07,,,0.00,WeatherCatV1.15B25,2013-05-09 22:40:00,
2013-05-09 18:45:00,56.7,55.8,29.84,NW,315,0.0,1.0,97,0.07,,,0.00,WeatherCatV1.15B25,2013-05-09 22:45:00,
2013-05-09 18:50:00,56.7,55.8,29.84,NW,315,0.0,1.0,97,0.07,,,0.00,WeatherCatV1.15B25,2013-05-09 22:50:00,
2013-05-09 18:55:00,56.7,55.8,29.84,NW,315,0.0,1.0,97,0.07,,,0.00,WeatherCatV1.15B25,2013-05-09 22:55:00,
2013-05-09 19:00:00,56.7,55.8,29.84,NW,315,0.0,1.0,97,0.07,,,0.00,WeatherCatV1.15B25,2013-05-09 23:00:00,
2013-05-09 19:05:00,56.7,55.8,29.84,NW,315,0.0,1.0,97,0.07,,,0.00,WeatherCatV1.15B25,2013-05-09 23:05:00,
2013-05-09 19:10:00,56.5,55.7,29.83,NNE,22,0.0,2.0,97,0.06,,,0.00,WeatherCatV1.15B25,2013-05-09 23:10:00,
2013-05-09 19:15:00,56.5,55.7,29.83,NNE,22,0.0,2.0,97,0.06,,,0.00,WeatherCatV1.15B25,2013-05-09 23:15:00,
2013-05-09 19:20:00,56.5,55.7,29.83,NNE,22,0.0,2.0,97,0.06,,,0.00,WeatherCatV1.15B25,2013-05-09 23:20:00,
2013-05-09 19:25:00,56.5,55.7,29.83,NNE,22,0.0,2.0,97,0.06,,,0.00,WeatherCatV1.15B25,2013-05-09 23:25:00,
2013-05-09 19:30:00,56.5,55.7,29.83,NNE,22,0.0,2.0,97,0.06,,,0.00,WeatherCatV1.15B25,2013-05-09 23:30:00,
2013-05-09 19:35:00,56.5,55.7,29.83,NNE,22,0.0,2.0,97,0.06,,,0.00,WeatherCatV1.15B25,2013-05-09 23:35:00,
2013-05-09 19:40:00,56.0,55.2,29.84,NNE,22,0.0,2.0,97,0.05,,,0.00,WeatherCatV1.15B25,2013-05-09 23:40:00,
2013-05-09 19:45:00,56.0,55.2,29.84,NNE,22,0.0,2.0,97,0.05,,,0.00,WeatherCatV1.15B25,2013-05-09 23:45:00,
2013-05-09 19:50:00,56.0,55.2,29.84,NNE,22,0.0,2.0,97,0.05,,,0.00,WeatherCatV1.15B25,2013-05-09 23:50:00,
2013-05-09 19:55:00,56.0,55.2,29.84,NNE,22,0.0,2.0,97,0.05,,,0.00,WeatherCatV1.15B25,2013-05-09 23:55:00,
2013-05-09 20:00:00,56.0,55.2,29.84,NNE,22,0.0,2.0,97,0.05,,,0.00,WeatherCatV1.15B25,2013-05-10 00:00:00,
2013-05-09 20:05:00,56.0,55.2,29.84,NNE,22,0.0,2.0,97,0.05,,,0.00,WeatherCatV1.15B25,2013-05-10 00:05:00,
2013-05-09 20:10:00,55.5,54.7,29.84,NNE,22,0.0,2.0,97,0.05,,,0.00,WeatherCatV1.15B25,2013-05-10 00:10:00,
2013-05-09 20:15:00,55.5,54.7,29.84,NNE,22,0.0,2.0,97,0.05,,,0.00,WeatherCatV1.15B25,2013-05-10 00:15:00,
2013-05-09 20:20:00,55.5,54.7,29.84,NNE,22,0.0,2.0,97,0.05,,,0.00,WeatherCatV1.15B25,2013-05-10 00:20:00,
2013-05-09 20:25:00,55.5,54.7,29.84,NNE,22,0.0,2.0,97,0.05,,,0.00,WeatherCatV1.15B25,2013-05-10 00:25:00,
2013-05-09 20:30:00,55.5,54.7,29.84,NNE,22,0.0,2.0,97,0.05,,,0.00,WeatherCatV1.15B25,2013-05-10 00:30:00,
2013-05-09 20:35:00,55.5,54.7,29.84,NNE,22,0.0,2.0,97,0.05,,,0.00,WeatherCatV1.15B25,2013-05-10 00:35:00,
2013-05-09 20:40:00,55.3,54.5,29.85,NNE,22,0.0,2.0,97,0.00,,,0.00,WeatherCatV1.15B25,2013-05-10 00:40:00,
2013-05-09 20:45:00,55.3,54.5,29.85,NNE,22,0.0,2.0,97,0.00,,,0.00,WeatherCatV1.15B25,2013-05-10 00:45:00,
2013-05-09 20:50:00,55.3,54.5,29.85,NNE,22,0.0,2.0,97,0.00,,,0.00,WeatherCatV1.15B25,2013-05-10 00:50:00,
2013-05-09 20:55:00,55.3,54.5,29.85,NNE,22,0.0,2.0,97,0.00,,,0.00,WeatherCatV1.15B25,2013-05-10 00:55:00,
2013-05-09 21:00:00,55.3,54.5,29.85,NNE,22,0.0,2.0,97,0.00,,,0.00,WeatherCatV1.15B25,2013-05-10 01:00:00,
2013-05-09 21:05:00,55.3,54.5,29.85,NNE,22,0.0,2.0,97,0.00,,,0.00,WeatherCatV1.15B25,2013-05-10 01:05:00,
2013-05-09 21:10:00,55.2,54.4,29.84,NNE,22,0.0,2.0,97,0.00,,,0.00,WeatherCatV1.15B25,2013-05-10 01:10:00,
2013-05-09 21:15:00,55.2,54.4,29.84,NNE,22,0.0,2.0,97,0.00,,,0.00,WeatherCatV1.15B25,2013-05-10 01:15:00,
2013-05-09 21:20:00,55.2,54.4,29.84,NNE,22,0.0,2.0,97,0.00,,,0.00,WeatherCatV1.15B25,2013-05-10 01:20:00,
2013-05-09 21:25:00,55.2,54.4,29.84,NNE,22,0.0,2.0,97,0.00,,,0.00,WeatherCatV1.15B25,2013-05-10 01:25:00,
2013-05-09 21:30:00,55.2,54.4,29.84,NNE,22,0.0,2.0,97,0.00,,,0.00,WeatherCatV1.15B25,2013-05-10 01:30:00,
2013-05-09 21:35:00,55.2,54.4,29.84,NNE,22,0.0,2.0,97,0.00,,,0.00,WeatherCatV1.15B25,2013-05-10 01:35:00,
2013-05-09 21:40:00,55.1,54.3,29.85,NE,45,0.0,1.0,97,0.00,,,0.00,WeatherCatV1.15B25,2013-05-10 01:40:00,
2013-05-09 21:45:00,55.1,54.3,29.85,NE,45,0.0,1.0,97,0.00,,,0.00,WeatherCatV1.15B25,2013-05-10 01:45:00,
2013-05-09 21:50:00,55.1,54.3,29.85,NE,45,0.0,1.0,97,0.00,,,0.00,WeatherCatV1.15B25,2013-05-10 01:50:00,
2013-05-09 21:55:00,55.1,54.3,29.85,NE,45,0.0,1.0,97,0.00,,,0.00,WeatherCatV1.15B25,2013-05-10 01:55:00,
2013-05-09 22:00:00,55.1,54.3,29.85,NE,45,0.0,1.0,97,0.00,,,0.00,WeatherCatV1.15B25,2013-05-10 02:00:00,
2013-05-09 22:05:00,55.1,54.3,29.85,NE,45,0.0,1.0,97,0.00,,,0.00,WeatherCatV1.15B25,2013-05-10 02:05:00,
2013-05-09 22:10:00,55.4,54.8,29.85,NE,45,0.0,0.0,98,0.00,,,0.00,WeatherCatV1.15B25,2013-05-10 02:10:00,
2013-05-09 22:15:00,55.4,54.8,29.85,NE,45,0.0,0.0,98,0.00,,,0.00,WeatherCatV1.15B25,2013-05-10 02:15:00,
2013-05-09 22:20:00,55.4,54.8,29.85,NE,45,0.0,0.0,98,0.00,,,0.00,WeatherCatV1.15B25,2013-05-10 02:20:00,
2013-05-09 22:25:00,55.4,54.8,29.85,NE,45,0.0,0.0,98,0.00,,,0.00,WeatherCatV1.15B25,2013-05-10 02:25:00,
2013-05-09 22:30:00,55.4,54.8,29.85,NE,45,0.0,0.0,98,0.00,,,0.00,WeatherCatV1.15B25,2013-05-10 02:30:00,
2013-05-09 22:35:00,55.4,54.8,29.85,NE,45,0.0,0.0,98,0.00,,,0.00,WeatherCatV1.15B25,2013-05-10 02:35:00,
2013-05-09 22:40:00,55.7,55.1,29.84,NE,45,0.0,0.0,98,0.00,,,0.00,WeatherCatV1.15B25,2013-05-10 02:40:00,
2013-05-09 22:45:00,55.7,55.1,29.84,NE,45,0.0,0.0,98,0.00,,,0.00,WeatherCatV1.15B25,2013-05-10 02:45:00,
2013-05-09 22:50:00,55.7,55.1,29.84,NE,45,0.0,0.0,98,0.00,,,0.00,WeatherCatV1.15B25,2013-05-10 02:50:00,
2013-05-09 22:55:00,55.7,55.1,29.84,NE,45,0.0,0.0,98,0.00,,,0.00,WeatherCatV1.15B25,2013-05-10 02:55:00,
2013-05-09 23:00:00,55.7,55.1,29.84,NE,45,0.0,0.0,98,0.00,,,0.00,WeatherCatV1.15B25,2013-05-10 03:00:00,
2013-05-09 23:05:00,55.7,55.1,29.84,NE,45,0.0,0.0,98,0.00,,,0.00,WeatherCatV1.15B25,2013-05-10 03:05:00,
2013-05-09 23:10:00,55.9,55.3,29.83,NE,45,0.0,0.0,98,0.00,,,0.00,WeatherCatV1.15B25,2013-05-10 03:10:00,
2013-05-09 23:15:00,55.9,55.3,29.83,NE,45,0.0,0.0,98,0.00,,,0.00,WeatherCatV1.15B25,2013-05-10 03:15:00,
2013-05-09 23:20:00,55.9,55.3,29.83,NE,45,0.0,0.0,98,0.00,,,0.00,WeatherCatV1.15B25,2013-05-10 03:20:00,
2013-05-09 23:25:00,55.9,55.3,29.83,NE,45,0.0,0.0,98,0.00,,,0.00,WeatherCatV1.15B25,2013-05-10 03:25:00,
2013-05-09 23:30:00,55.9,55.3,29.83,NE,45,0.0,0.0,98,0.00,,,0.00,WeatherCatV1.15B25,2013-05-10 03:30:00,
2013-05-09 23:35:00,55.9,55.3,29.83,NE,45,0.0,0.0,98,0.00,,,0.00,WeatherCatV1.15B25,2013-05-10 03:35:00,
2013-05-09 23:40:00,56.1,55.5,29.83,NE,45,0.0,0.0,98,0.00,,,0.00,WeatherCatV1.15B25,2013-05-10 03:40:00,
2013-05-09 23:45:00,56.1,55.5,29.83,NE,45,0.0,0.0,98,0.00,,,0.00,WeatherCatV1.15B25,2013-05-10 03:45:00,
2013-05-09 23:50:00,56.1,55.5,29.83,NE,45,0.0,0.0,98,0.00,,,0.00,WeatherCatV1.15B25,2013-05-10 03:50:00,
2013-05-09 23:55:00,56.1,55.5,29.83,NE,45,0.0,0.0,98,0.00,,,0.00,WeatherCatV1.15B25,2013-05-10 03:55:00,